Weather History for Pereira, Colombia

Change the Weather History Date:

Thursday, December 13, 2012

  Actual Average Record
Temperature  
Mean Temperature 68 °F -  
Max Temperature 73 °F 81 °F 80 °F (2000)
Min Temperature 63 °F 61 °F 62 °F (1999)
Cooling Degree Days 3    
Growing Degree Days 18 (Base 50)    
Moisture  
Dew Point 64 °F    
Average Humidity 85    
Maximum Humidity 94    
Minimum Humidity 69    
Precipitation  
Precipitation 0.08 in 0.19 in - ()
Sea Level Pressure  
Sea Level Pressure 30.10 in    
Wind  
Wind Speed 3 mph ()    
Max Wind Speed 7 mph    
Max Gust Speed -    
Visibility 5.4 miles    
Events Fog , Rain    
Averages and records for this station are not official NWS values.
T = Trace of Precipitation, MM = Missing Value Source: Averaged Metar Reports

Daily Weather History Graph

Daily Weather History Graph

Search for Another Location

Airport:

Trip Planner

Search our weather history database for the weather conditions in past years. The results will help you decide how hot, cold, wet, or windy it might be!

Date:

Astronomy

Dec. 13, 2012 Rise Set
Actual Time 6:01 AM COT 5:52 PM COT
Civil Twilight 5:39 AM COT 6:15 PM COT
Nautical Twilight 5:13 AM COT 6:41 PM COT
Astronomical Twilight 4:47 AM COT 7:07 PM COT
Moon 6:12 AM COT (12/13) 6:27 PM COT (12/13)
Length of Visible Light 12h 36m
Length of Day
11h 50m
New Moon, 0% of the Moon is Illuminated
Dec 13
New Moon
Dec 20
First Quarter
Dec 28
Full
Jan 4
Last Quarter
Jan 11
New

Hourly Weather History & Observations

Time (COT) Temp. Dew Point Humidity Pressure Visibility Wind Dir Wind Speed Gust Speed Precip Events Conditions
12:00 AM 66.2 °F 64.4 °F 94% 30.09 in 6.2 mi Variable 2.3 mph - N/A   Mostly Cloudy
1:00 AM 67 °F 64 °F 88%  in 6 mi Calm Calm - -   Overcast
1:00 AM 66.2 °F 64.4 °F 94% 30.09 in 6.2 mi Calm Calm - N/A   Mostly Cloudy
5:00 AM 64.4 °F 62.6 °F 94% 30.08 in 1.6 mi Variable 2.3 mph - N/A Rain Rain
6:00 AM 64.4 °F 62.6 °F 94% 30.09 in 5.0 mi NNE 3.5 mph - N/A Rain Rain
7:00 AM 64 °F 63 °F 94%  in 6 mi Calm Calm - - Rain Light Drizzle
7:00 AM 64.4 °F 62.6 °F 94% 30.11 in 6.2 mi Calm Calm - N/A   Light Drizzle
8:00 AM 66.2 °F 62.6 °F 88% 30.12 in 6.2 mi Variable 2.3 mph - N/A   Mostly Cloudy
9:00 AM 69.8 °F 64.4 °F 83% 30.14 in 6.2 mi Variable 2.3 mph - N/A   Scattered Clouds
10:00 AM 72 °F 64 °F 69%  in 9 mi West 6.7 mph - -   Haze
10:00 AM 71.6 °F 64.4 °F 78% 30.15 in 6.2 mi West 5.8 mph - N/A   Scattered Clouds
11:00 AM 73.4 °F 64.4 °F 73% 30.14 in 6.2 mi SW 6.9 mph - N/A   Scattered Clouds
12:00 PM 71.6 °F 64.4 °F 78% 30.11 in 6.2 mi SW 4.6 mph - N/A   Light Drizzle
1:00 PM 73 °F 65 °F 69%  in 6 mi Calm Calm - -   Overcast
1:00 PM 73.4 °F 64.4 °F 73% 30.10 in 6.2 mi SSW 6.9 mph - N/A   Mostly Cloudy
2:00 PM 69.8 °F 66.2 °F 88% 30.07 in 3.1 mi SE 4.6 mph - N/A   Heavy Drizzle
3:00 PM 71.6 °F 66.2 °F 83% 30.04 in 5.0 mi SSE 5.8 mph - N/A   Light Drizzle
4:00 PM 71 °F 65 °F 75%  in 9 mi ESE 4.5 mph - -   Haze
4:00 PM 71.6 °F 64.4 °F 78% 30.03 in 6.2 mi ESE 3.5 mph - N/A   Scattered Clouds
5:00 PM 71.6 °F 66.2 °F 83% 30.04 in 6.2 mi SW 4.6 mph - N/A   Scattered Clouds
6:00 PM 69.8 °F 66.2 °F 88% 30.06 in 6.2 mi SE 3.5 mph - N/A   Scattered Clouds
7:00 PM 69 °F 65 °F 83%  in 8 mi ESE 2.2 mph - -   Haze
7:00 PM 69.8 °F 64.4 °F 83% 30.07 in 6.2 mi Variable 2.3 mph - N/A   Scattered Clouds
8:00 PM 68.0 °F 64.4 °F 88% 30.10 in 3.1 mi East 5.8 mph - N/A Rain Rain
9:00 PM 66.2 °F 64.4 °F 94% 30.13 in 2.5 mi SE 4.6 mph - N/A Rain Heavy Rain
10:00 PM 66 °F 64 °F 93%  in 2 mi South 4.5 mph - - Rain Light Rain
10:00 PM 66.2 °F 64.4 °F 94% 30.15 in 2.5 mi South 3.5 mph - N/A Fog , Rain Light Rain
11:00 PM 66.2 °F 64.4 °F 94% 30.15 in 2.2 mi South 3.5 mph - N/A Fog , Rain Light Rain